Regional Weather Roundup
Issued by NWS

Home | Current Version | Previous Version | Graphics & Text | Print | Product List | Glossary On
Versions: 1 2 3 4 5 6 7 8 9 10 11 12 13 14 15 16 17 18 19 20 21 22 23 24 25 26 27 28 29 30 31 32 33 34 35 36 37 38 39 40 41 42 43 44 45 46 47 48 49 50
000
ASUS45 KSLC 011810
RWRUT
UTAH REGIONAL WEATHER ROUNDUP
NATIONAL WEATHER SERVICE SALT LAKE CITY UT
1200 PM MDT SAT AUG 01 2015

UTZ001>011-023>025-011900-

NORTHERN UTAH

CITY           SKY/WX    TMP DP  RH WIND       PRES   REMARKS
BRIGHAM CITY   SUNNY     84  33  15 CALM      30.14F
HILL AFB       SUNNY     84  39  19 NE6       30.17F
LOGAN          SUNNY     81  39  22 CALM      30.16F
OGDEN          SUNNY     86  37  17 CALM      30.15S
PROVO AIRPORT  MOSUNNY   79  41  25 VRB6      30.17F
SALT LAKE CITY PTSUNNY   88  33  14 W3        30.12F
VERNAL         SUNNY     83  37  19 CALM      30.18F
WENDOVER       SUNNY     86  28  12 E5        30.15S
HEBER CITY     MOSUNNY   75  30  19 CALM      30.24F
WEST JORDAN    SUNNY     84  37  18 CALM      30.16F

$$

UTZ012>022-026-027-011900-

SOUTHERN/CENTRAL UTAH

CITY           SKY/WX    TMP DP  RH WIND       PRES   REMARKS
BLANDING       CLOUDY    61  60  94 N3        30.40S
BRYCE CANYON   CLOUDY    74  45  35 S7        30.39F
CEDAR CITY     CLOUDY    81  46  29 VRB3      30.22F
DELTA          PTSUNNY   83  34  16 CALM      30.16F
HANKSVILLE     PTSUNNY   86  52  30 S7        30.16F
MILFORD        PTSUNNY   82  47  29 S8        30.17F
MOAB/CYNLANDS  SUNNY     89  52  28 SW9       30.13F
PRICE          MOSUNNY   83  33  16 S7        30.25F
ST GEORGE      PTCLDY    90  54  29 CALM      30.06F
KANAB          CLOUDY    81  54  39 SW6       30.26F

$$

REGIONAL REPORTS     COLORADO/ARIZONA

CITY           SKY/WX    TMP DP  RH WIND       PRES   REMARKS
CRAIG, CO      SUNNY     85  38  18 W7G16     30.26F
GRAND JUNCTION MOSUNNY   86  49  27 NE7       30.16F
RIFLE          SUNNY     85  42  22 N5        30.21F
MONTROSE       MOSUNNY   81  47  30 VRB5      30.26F
CORTEZ         PTSUNNY   68  62  81 N6        30.33S
PAGE, AZ       CLOUDY    84  55  36 N7        30.16S
GRAND CANYON   CLOUDY    67  58  72 SE5       30.36S
KINGMAN        CLOUDY    82  55  39 W18       30.14R
FLAGSTAFF      CLOUDY    68  53  58 SE5       30.38R

$$

REGIONAL REPORTS    NEVADA/IDAHO/WYOMING

CITY           SKY/WX    TMP DP  RH WIND       PRES   REMARKS
LAS VEGAS, NV  CLOUDY    87  58  37 S18G31    29.98R
ELY            MOSUNNY   83  35  18 VRB5      30.27F
ELKO           SUNNY     84  26  12 CALM      30.19F
POCATELLO, ID  SUNNY     84  37  18 NW6       30.17F
BURLEY         SUNNY     85  46  25 VRB5      30.12F
EVANSTON, WY   SUNNY     80  30  16 N5        30.34F
ROCK SPRINGS   SUNNY     78  32  18 CALM      30.30F
KEMMERER       SUNNY    N/A N/A N/A N3        30.35S

$$



USA.gov is the U.S. government's official web portal to all federal, state and local government web resources and services.